Notices

What's New in latest Release from April 7th, 2021:

- Updated Glossary, including Speed of Maximum Gust, and Total Hourly Precipitation

- Updated national and regional climate services offices contacts and prices information

- Addition of station inventory lists for 1981-2010, 1971-2000, and 1961-1990 Normals.

If you haven't already, please take our survey and provide feedback about our website: https://eccc.sondage-survey.ca/f/LanguageSelection.aspx?s=442ca660-fcf1-47c0-95a9-59707d6fd709

Hourly Data Report for December 30, 2003

TORONTO CITY
ONTARIO

43°40'00.000" N
79°24'00.000" W
112.50 m
6158355
71508
XTO

Download Data

Hourly Data (December 2003)
Hourly Data Report for December 30, 2003
TIME
LST
Temp Definition
°C
Dew Point Definition
°C
Rel Hum Definition
%
Precip. Amount Definition
mm

Wind Dir Definition
10's deg

Wind Spd Definition
km/h
Visibility Definition
km
Stn Press Definition
kPa
Hmdx Definition


Wind Chill Definition


Weather Definition


00:00 6.9 6.6 98   LegendMM LegendMM LegendMM 99.10     LegendNANA
01:00 6.8 6.5 98   LegendMM LegendMM LegendMM 99.07     LegendNANA
02:00 6.9 6.8 99   LegendMM LegendMM LegendMM 98.98     LegendNANA
03:00 6.9 6.4 97   LegendMM LegendMM LegendMM 99.00     LegendNANA
04:00 5.7 4.7 93   LegendMM LegendMM LegendMM 98.97     LegendNANA
05:00 5.0 4.2 95   LegendMM LegendMM LegendMM 99.00     LegendNANA
06:00 3.9 2.8 93   LegendMM LegendMM LegendMM 99.12     LegendNANA
07:00 3.9 2.6 91   LegendMM LegendMM LegendMM 99.27     LegendNANA
08:00 3.9 1.4 84   LegendMM LegendMM LegendMM 99.39     LegendNANA
09:00 3.7 0.1 77   LegendMM LegendMM LegendMM 99.59     LegendNANA
10:00 3.4 -0.2 77   LegendMM LegendMM LegendMM 99.71     LegendNANA
11:00 3.7 -0.4 75   LegendMM LegendMM LegendMM 99.76     LegendNANA
12:00 3.9 -1.1 70   LegendMM LegendMM LegendMM 99.81     LegendNANA
13:00 3.6 -1.2 71   LegendMM LegendMM LegendMM 99.85     LegendNANA
14:00 3.9 -1.8 66   LegendMM LegendMM LegendMM 99.98     LegendNANA
15:00 3.4 -2.2 67   LegendMM LegendMM LegendMM 100.15     LegendNANA
16:00 2.9 -2.3 69   LegendMM LegendMM LegendMM 100.35     LegendNANA
17:00 2.7 -2.3 70   LegendMM LegendMM LegendMM 100.51     LegendNANA
18:00 2.9 -2.7 67   LegendMM LegendMM LegendMM 100.61     LegendNANA
19:00 2.4 -2.7 69   LegendMM LegendMM LegendMM 100.70     LegendNANA
20:00 2.3 -2.3 72   LegendMM LegendMM LegendMM 100.81     LegendNANA
21:00 2.4 -2.2 72   LegendMM LegendMM LegendMM 100.90     LegendNANA
22:00 2.2 -2.3 72   LegendMM LegendMM LegendMM 100.95     LegendNANA
23:00 1.7 -2.3 75   LegendMM LegendMM LegendMM 100.97     LegendNANA

Notes on Data Quality.

Legend

  • E = Estimated
  • M = Missing
  • NA = Not Available*
  • [empty] = Indicates an unobserved value
Date modified: